Regional Weather Roundup
Issued by NWS

Home | Current Version | Previous Version | Graphics & Text | Print | Product List | Glossary On
Versions: 1 2 3 4 5 6 7 8 9 10 11 12 13 14 15 16 17 18 19 20 21 22 23 24 25 26 27 28 29 30 31 32 33 34 35 36 37 38 39 40 41 42 43 44 45 46 47 48 49 50
000
ASUS45 KABQ 301001
RWRNM
NEW MEXICO REGIONAL WEATHER ROUNDUP
NATIONAL WEATHER SERVICE ALBUQUERQUE NM
400 AM MDT TUE AUG 30 2016

NOTE: "FAIR" MEANS FEW OR NO CLOUDS BELOW 12,000 FEET AGL WITH NO
       SIGNIFICANT WEATHER OR OBSTRUCTIONS TO VISION.

      THIS PRODUCT IS RELEASED AS TWO VERSIONS.  ONE VERSION NEAR
      THE TOP OF THE HOUR CONTAINING PRELIMINARY DATA FROM ALBUQUERQUE
      AND OTHER STATIONS.  A FINAL VERSION WITH ADDITIONAL DATA IS
      ISSUED ABOUT 10 MINUTES AFTER THE HOUR.

NMZ501-503-504-510>518-301100-
NORTHWEST PLATEAU/NORTHCENTRAL MOUNTAINS

CITY           SKY/WX    TMP DP  RH WIND       PRES   REMARKS
FARMINGTON     FAIR      62  45  53 E9        30.29F
SANTA FE       FAIR      50  47  89 CALM      30.37S
TAOS           FAIR      45  37  76 NE3       30.43S
ANGEL FIRE     FOG       43  42  97 CALM      30.51F VSB 1/4

$$
NMZ402-403-502-505>509-301100-
WESTCENTRAL MOUNTAINS/SOUTHWEST MOUNTAINS

CITY           SKY/WX    TMP DP  RH WIND       PRES   REMARKS
GALLUP         FAIR      52  43  71 CALM      30.34S
GRANTS         FAIR      54  48  80 S7        30.38S
SILVER CITY    FAIR      63  55  77 E7        30.27F

$$
NMZ407-409-411-412-301100-
SOUTHERN DESERTS

CITY           SKY/WX    TMP DP  RH WIND       PRES   REMARKS
DEMING         FAIR      67  58  72 NE7       30.21S
LAS CRUCES     FAIR      67  58  72 SE8       30.22F
HOLLOMAN AFB   FAIR      65  56  73 SE7       30.18S
ALAMOGORDO     FAIR      64  55  72 SE6       30.21S
T OR C         FAIR      64  50  60 N10       30.24S

$$
NMZ519>523-301100-
CENTRAL VALLEYS/CENTRAL HIGHLANDS

CITY           SKY/WX    TMP DP  RH WIND       PRES   REMARKS
ALBUQUERQUE    FAIR      64  52  64 E16       30.31S
DOUBLE EAGLE   FAIR      53  46  79 N7        30.34S
MORIARTY ARPT  CLOUDY    52  49  89 NW5       30.38F
CLINES CORNERS CLOUDY    53  49  86 E5        30.41S
BELEN          FAIR      58  50  77 NW5       30.30S
SOCORRO        FAIR      61  51  70 N3        30.28S

$$
NMZ524>526-539-540-301100-
SOUTHCENTRAL MOUNTAINS

CITY           SKY/WX    TMP DP  RH WIND       PRES   REMARKS
RUIDOSO        NOT AVBL

$$
NMZ527>531-301100-
NORTHEAST HIGHLANDS/NORTHEAST PLAINS

CITY           SKY/WX    TMP DP  RH WIND       PRES   REMARKS
LAS VEGAS      CLOUDY    51  50  96 N7        30.41S
RATON          FAIR      50  47  89 E5        30.38S
CLAYTON        FAIR      58  57  97 CALM      30.31F

$$
NMZ532>537-301100-
EASTCENTRAL PLAINS

CITY           SKY/WX    TMP DP  RH WIND       PRES   REMARKS
TUCUMCARI      CLOUDY    64  63  96 E6        30.26S
CANNON AFB     CLOUDY    63  63 100 NE6       30.26S
CLOVIS AIRPORT CLOUDY    63  61  94 NE8       30.26S

$$
NMZ028-029-538-301100-
SOUTHEAST PLAINS

CITY           SKY/WX    TMP DP  RH WIND       PRES   REMARKS
ROSWELL        CLOUDY    68  61  78 NE7       30.21S
ARTESIA        CLOUDY    68  68 100 N8        30.20F
CARLSBAD       LGT RAIN  70  64  81 NE10      30.17S
HOBBS          MOCLDY    66  66 100 NE6       30.20S


$$



USA.gov is the U.S. government's official web portal to all federal, state and local government web resources and services.